Regional Weather Roundup
Issued by NWS Northern Indiana

Home | Current Version | Previous Version | Text Only | Print | Product List | Glossary On
Versions: 1 2 3 4 5 6 7 8 9 10 11 12 13 14 15 16 17 18 19 20 21 22 23 24 25 26 27 28 29 30 31 32 33 34 35 36 37 38 39 40 41 42 43 44 45 46 47 48 49 50
000
ASUS43 KIWX 021310
RWRIWX

KIWX WEATHER ROUNDUP
NATIONAL WEATHER SERVICE NORTHERN INDIANA
800 AM EST MON MAR 02 2015

NOTE: "FAIR" INDICATES FEW OR NO CLOUDS BELOW 12,000 FEET WITH NO
SIGNIFICANT WEATHER AND/OR OBSTRUCTIONS TO VISIBILITY.

* THESE STATIONS ARE NOT UNDER NWS QUALITY CONTROL. THEY ALSO MAY NOT
  REPORT WEATHER SUCH AS PRECIPITATION OR FOG.

INZ001>027-021400-
NORTHERN INDIANA

CITY           SKY/WX    TMP DP  RH WIND       PRES   REMARKS
GARY*          PTCLDY    14   7  73 W7        30.48R WCI   4
VALPARAISO     MOCLDY     9   5  84 W7        30.46R WCI  -2
MICHIGAN CITY* PTCLDY    12   7  79 SW6       30.47R WCI   3
LAPORTE*       MOCLDY     9   5  86 W5        30.46R FOG     WCI   0
KNOX*            N/A      3  -9  55 W6        30.47R WCI  -8
SOUTH BEND     MOCLDY    10   5  80 SW5       30.45R WCI   2
ELKHART*       PTCLDY    10   5  79 SW3       30.44R
GOSHEN         PTCLDY     6   3  87 S3        30.44R FOG
MONTICELLO*    MOCLDY     6   4  90 CALM      30.48R
LOGANSPORT*    CLOUDY     1   0  92 S3        30.49R FOG
ROCHESTER*     MOCLDY    10   9  92 W3        30.47R FOG
WARSAW*        PTCLDY    12   9  85 SW3       30.46R FOG
ANGOLA*        CLEAR      7   3  85 CALM      30.40R
FORT WAYNE     PTCLDY     7   5  91 W7        30.46R FOG     WCI  -5
HUNTINGTON*    MOCLDY    10   4  77 W5        30.46R WCI   2
PERU/GRISSOM   FAIR       4   1  85 SW5       30.47R WCI  -5
MARION*        MOCLDY     4   0  85 W3        30.48R FOG

$$
INZ028>050-021400-
CENTRAL INDIANA

CITY           SKY/WX    TMP DP  RH WIND       PRES   REMARKS
LAFAYETTE      MOCLDY     8   7  95 CALM      30.50R
KOKOMO*        MOCLDY     7   1  78 W7        30.48R WCI  -5
MUNCIE*        MOCLDY    14   9  80 W5        30.47R WCI   6
INDIANAPOLIS   MOCLDY    16   9  74 W3        30.49R

$$
MIZ043>046-050>051-056>058-064>065-071>073-077>080-021400-
SOUTHWEST LOWER MICHIGAN

CITY           SKY/WX    TMP DP  RH WIND       PRES   REMARKS
BATTLE CREEK   CLEAR     13   7  77 SW7       30.39R WCI   3
BENTON HARBOR  CLEAR     20  15  81 W6        30.43R WCI  12
COLDWATER*     PTCLDY    11   8  88 SW7       30.39R FOG     WCI   0
HILLSDALE*     PTCLDY    16  11  80 W6        30.37R WCI   7
HOLLAND        CLEAR     22  14  71 NW3       30.41R
GRAND RAPIDS   PTCLDY    17  10  74 W7        30.39R WCI   8
KALAMAZOO      CLEAR     12   8  84 W7        30.40R WCI   1
STURGIS*         N/A     10   9  92 CALM      30.41R FOG
THREE RIVERS*  FAIR      13   9  82 SW3       30.42R

$$
OHZ001>008-015>018-024>025-021400-
NORTHWEST OHIO

CITY           SKY/WX    TMP DP  RH WIND       PRES   REMARKS
WAUSEON*       FAIR      10   7  85 W9        30.42R FOG     WCI  -2
DEFIANCE       MOCLDY    12   9  87 SW5       30.45R FOG     WCI   4
FINDLAY        PTCLDY    13   9  84 W12       30.42R FOG     WCI  -1
TOLEDO EXPRESS PTCLDY    10   7  87 W12       30.41R FOG     WCI  -5
TOLEDO METCALF CLEAR     13   9  84 SW8       30.43R FOG     WCI   2
LIMA           MOCLDY    12   9  87 SW7       30.43R FOG     WCI   1

$$
AND FOR LAKE MICHIGAN COASTAL AND OPEN LAKE BUOY OBSERVATIONS

STATION/POSITION TEMP    WIND        PRES    VSBY  WAVE
                 AIR SEA DIR/SP/G                  HT/PER
                 (F)     (DEG/KT/KT) (MB)    (MI)  (FT/S)
CALUMET HARBOR    17     250/  4/  7 1030.4S
MICHIGAN CITY     16     200/ 10/ 11   N/A
SAINT JOSEPH      20     270/  1/  4 1030.5R

$$
&&


USA.gov is the U.S. government's official web portal to all federal, state and local government web resources and services.